Location: Tabor
(49.4170°N, 14.6670°E)
Time: 10:51:48
(UTC+02:00)

ISS - Pass Details

Date: 25 May 2021
Orbit: 417 x 422 km, 51.6° (Epoch: 13 June)

Event Time Altitude Azimuth Distance (km) Brightness Sun altitude
Rises 22:12:11 0° 287° (WNW) 2,366 1.1 -10.4°
Reaches altitude 10° 22:14:17 10° 288° (WNW) 1,502 0.0 -10.6°
Maximum altitude 22:17:39 79° 15° (NNE) 432 -3.7 -11.0°
Enters shadow 22:20:44 12° 103° (ESE) 1,383 -1.6 -11.3°
